SGDC (42692 NORAD) Tracking and Keplerian Element Data

This shows tracking and keplerian element data for the satellite.

Feedback or suggestion? Click here.




ElementValue
Catalog42692
NameSGDC
Epoch Orbit2840
Epoch Day33.83768884
Epoch Year2025
RAAN55.7498
Inclination0.0096
Eccentricity0.0003023
Argument of Perigee269.6554
Mean Anonmoly34.5521
Mean Motion1.00272002
Decay Rate-2.44E-06
L11 42692U 17023B 25033.83768884 -.00000244 00000+0 00000+0 0 9990
L22 42692 0.0096 55.7498 0003023 269.6554 34.5521 1.00272002 28401



Live tracking and technical data element details for SGDC (NORAD 42692). SGDC can be tracked NOW for your location showing map with azimuth and elevation plus other details from your city location.







IsCatalogInMostPopularTable: catalog: 42692, numindb: 683
Update: records affected: 1



GetName: 42692 SGDC

Hit Count: updated at: Fri, 14 Feb 2025 16:04:41 GMT